Weather History for Park Rapids, MN

Change the Weather History Date:

Saturday, August 31, 2013

  Actual Average Record
Temperature  
Mean Temperature 78 °F -  
Max Temperature 91 °F 75 °F 92 °F (1961)
Min Temperature 62 °F 51 °F 33 °F (1967)
Cooling Degree Days 12    
Growing Degree Days 28 (Base 50)    
Moisture  
Dew Point 62 °F    
Average Humidity 73    
Maximum Humidity 94    
Minimum Humidity 32    
Precipitation  
Precipitation 0.25 in - - ()
Sea Level Pressure  
Sea Level Pressure 29.80 in    
Wind  
Wind Speed 8 mph (SW)    
Max Wind Speed 16 mph    
Max Gust Speed 30 mph    
Visibility 9 miles    
Events Rain    
Averages and records for this station are not official NWS values.
T = Trace of Precipitation, MM = Missing Value Source: NWS Daily Summary

Daily Weather History Graph

Daily Weather History Graph

Search for Another Location

Airport:

Trip Planner

Search our weather history database for the weather conditions in past years. The results will help you decide how hot, cold, wet, or windy it might be!

Date:

Astronomy

Aug. 31, 2013 Rise Set
Actual Time 6:38 AM CDT 8:01 PM CDT
Civil Twilight 6:07 AM CDT 8:32 PM CDT
Nautical Twilight 5:29 AM CDT 9:10 PM CDT
Astronomical Twilight 4:48 AM CDT 9:51 PM CDT
Moon 1:57 AM CDT (8/31) 5:09 PM CDT (8/31)
Length of Visible Light 14h 25m
Length of Day
13h 22m
Waning Crescent, 21% of the Moon is Illuminated
Aug 31
Waning Crescent
Sep 5
New
Sep 12
First Quarter
Sep 19
Full
Sep 26
Last Quarter

Hourly Weather History & Observations

Time (CDT) Temp. Heat Index Dew Point Humidity Pressure Visibility Wind Dir Wind Speed Gust Speed Precip Events Conditions
12:53 AM 64.9 °F - 62.1 °F 90% 29.91 in 10.0 mi SSE 3.5 mph - N/A   Clear
1:53 AM 66.0 °F - 61.0 °F 84% 29.89 in 10.0 mi South 8.1 mph - N/A   Clear
2:53 AM 66.9 °F - 61.0 °F 81% 29.88 in 10.0 mi South 9.2 mph - N/A   Clear
3:53 AM 66.9 °F - 59.0 °F 76% 29.85 in 10.0 mi South 13.8 mph - N/A   Clear
4:53 AM 66.0 °F - 59.0 °F 78% 29.85 in 10.0 mi South 6.9 mph - N/A   Clear
5:53 AM 66.0 °F - 60.1 °F 81% 29.82 in 10.0 mi South 5.8 mph - N/A   Clear
6:53 AM 64.0 °F - 60.1 °F 87% 29.82 in 10.0 mi South 5.8 mph - N/A   Clear
7:53 AM 64.9 °F - 61.0 °F 87% 29.82 in 10.0 mi SSE 5.8 mph - N/A   Clear
8:53 AM 70.0 °F - 63.0 °F 78% 29.82 in 10.0 mi SSW 3.5 mph - N/A   Clear
9:53 AM 77.0 °F - 64.9 °F 66% 29.82 in 10.0 mi SSW 8.1 mph - N/A   Clear
10:53 AM 79.0 °F - 64.9 °F 62% 29.82 in 10.0 mi SW 10.4 mph - N/A   Clear
11:53 AM 84.0 °F 85.4 °F 64.0 °F 51% 29.80 in 10.0 mi SW 9.2 mph - N/A   Clear
12:53 PM 87.1 °F 86.1 °F 57.9 °F 37% 29.77 in 10.0 mi SW 9.2 mph 16.1 mph N/A   Clear
1:53 PM 88.0 °F 86.9 °F 57.9 °F 36% 29.77 in 10.0 mi SW 12.7 mph 16.1 mph N/A   Clear
2:53 PM 91.0 °F 89.7 °F 57.0 °F 32% 29.76 in 10.0 mi WSW 10.4 mph 29.9 mph N/A   Partly Cloudy
3:53 PM 87.1 °F 87.0 °F 61.0 °F 41% 29.75 in 10.0 mi West 15.0 mph - N/A   Scattered Clouds
4:36 PM 75.2 °F - 62.6 °F 65% 29.78 in 10.0 mi NNW 13.8 mph 28.8 mph N/A   Overcast
4:53 PM 71.1 °F - 64.0 °F 78% 29.74 in 10.0 mi North 9.2 mph - 0.00 in Rain Light Rain
5:53 PM 73.0 °F - 64.9 °F 76% 29.74 in 10.0 mi SSE 9.2 mph - 0.00 in   Clear
6:53 PM 75.0 °F - 64.0 °F 69% 29.72 in 10.0 mi SSE 3.5 mph - N/A   Clear
7:53 PM 73.0 °F - 64.9 °F 76% 29.72 in 10.0 mi South 12.7 mph - N/A   Clear
8:53 PM 71.1 °F - 69.1 °F 93% 29.78 in 2.5 mi WNW 16.1 mph 19.6 mph 0.15 in Rain Heavy Rain
9:04 PM 68.0 °F - 66.2 °F 94% 29.79 in 6.0 mi NW 13.8 mph - 0.03 in Rain Light Rain
9:11 PM 68.0 °F - 64.4 °F 88% 29.78 in 4.0 mi WSW 8.1 mph - 0.10 in Rain Heavy Rain
9:53 PM 66.9 °F - 64.9 °F 93% 29.77 in 10.0 mi West 8.1 mph - 0.10 in   Scattered Clouds
10:53 PM 64.9 °F - 61.0 °F 87% 29.76 in 10.0 mi WNW 11.5 mph - N/A   Clear
11:53 PM 62.1 °F - 59.0 °F 90% 29.76 in 10.0 mi WNW 10.4 mph - N/A   Clear